Stevens Point, WI

2:47 AM CDT on June 29, 2017 (GMT -0500)
Stevens Point Municipal

Weather History for KSTE - May, 2012

Change the Weather History Date:

Friday, May 11, 2012

  Actual Average Record
Temperature  
Mean Temperature 60 °F -  
Max Temperature 75 °F 68 °F 85 °F (1979)
Min Temperature 46 °F 44 °F 26 °F (1990)
Degree Days  
Heating Degree Days 5    
Growing Degree Days 10 (Base 50)    
Moisture  
Dew Point 44 °F    
Average Humidity 54    
Maximum Humidity 82    
Minimum Humidity 42    
Precipitation  
Precipitation 0.00 in - - ()
Sea Level Pressure  
Sea Level Pressure 30.00 in    
Wind  
Wind Speed 8 mph (SSW)    
Max Wind Speed 20 mph    
Max Gust Speed 30 mph    
Visibility 10 miles    
Events      
Averages and records for this station are not official NWS values.
T = Trace of Precipitation, MM = Missing Value Source: NWS Daily Summary

Daily Weather History Graph

Daily Weather History Graph

Search for Another Location

Airport or City:

Trip Planner

Search our weather history database for the weather conditions in past years. The results will help you decide how hot, cold, wet, or windy it might be!

Date:

Astronomy

May. 11, 2012 Rise Set
Actual Time 5:34 AM CDT 8:15 PM CDT
Civil Twilight 5:01 AM CDT 8:48 PM CDT
Nautical Twilight 4:19 AM CDT 9:30 PM CDT
Astronomical Twilight 3:30 AM CDT 10:19 PM CDT
Moon 12:53 AM CDT (5/11) 11:09 AM CDT (5/11)
Length of Visible Light 15h 47m
Length of Day
14h 40m
Waning Gibbous, 63% of the Moon is Illuminated
May 11
Waning Gibbous
May 12
Last Quarter
May 20
New
May 28
First Quarter
Jun 4
Full

Hourly Weather History & Observations

Time (CDT) Temp. Dew Point Humidity Pressure Visibility Wind Dir Wind Speed Gust Speed Precip Events Conditions
12:15 AM 49.3 °F 36.7 °F 62% 29.99 in 10.0 mi Calm Calm - N/A   Clear
12:35 AM 47.8 °F 36.5 °F 65% 29.99 in 10.0 mi Calm Calm - N/A   Clear
12:55 AM 49.3 °F 34.5 °F 57% 29.99 in 10.0 mi South 5.8 mph - N/A   Clear
1:15 AM 50.9 °F 34.9 °F 54% 29.99 in 10.0 mi South 5.8 mph - N/A   Clear
1:35 AM 50.4 °F 35.1 °F 56% 29.98 in 10.0 mi South 4.6 mph - N/A   Clear
1:55 AM 50.2 °F 35.6 °F 57% 29.98 in 10.0 mi South 4.6 mph - N/A   Clear
2:15 AM 49.3 °F 35.6 °F 59% 29.98 in 10.0 mi South 4.6 mph - N/A   Clear
2:55 AM 48.6 °F 36.0 °F 62% 29.99 in 10.0 mi South 6.9 mph - N/A   Clear
3:15 AM 49.1 °F 35.8 °F 60% 30.00 in 10.0 mi South 5.8 mph - N/A   Clear
3:35 AM 48.9 °F 35.2 °F 59% 30.00 in 10.0 mi South 5.8 mph - N/A   Clear
3:55 AM 47.8 °F 34.9 °F 61% 30.01 in 10.0 mi South 5.8 mph - N/A   Clear
4:15 AM 47.8 °F 34.7 °F 60% 30.01 in 10.0 mi South 4.6 mph - N/A   Clear
4:35 AM 46.8 °F 34.3 °F 62% 30.01 in 10.0 mi South 5.8 mph - N/A   Clear
4:55 AM 46.9 °F 34.0 °F 61% 30.01 in 10.0 mi SSW 6.9 mph - N/A   Clear
5:15 AM 47.3 °F 33.8 °F 59% 30.01 in 10.0 mi South 5.8 mph - N/A   Clear
5:35 AM 46.8 °F 33.8 °F 61% 30.01 in 10.0 mi South 5.8 mph - N/A   Clear
5:55 AM 46.8 °F 33.8 °F 61% 30.01 in 10.0 mi South 5.8 mph - N/A   Clear
6:15 AM 47.3 °F 34.0 °F 60% 30.01 in 10.0 mi South 4.6 mph - N/A   Clear
6:35 AM 49.1 °F 33.6 °F 55% 30.00 in 10.0 mi South 6.9 mph - N/A   Clear
6:55 AM 51.1 °F 33.3 °F 51% 30.00 in 10.0 mi South 9.2 mph - N/A   Clear
7:15 AM 53.1 °F 33.8 °F 48% 29.99 in 10.0 mi South 10.4 mph - N/A   Clear
7:35 AM 54.7 °F 34.5 °F 47% 29.99 in 10.0 mi South 6.9 mph - N/A   Clear
7:55 AM 55.9 °F 34.9 °F 45% 29.99 in 10.0 mi South 12.7 mph - N/A   Clear
8:15 AM 58.1 °F 35.6 °F 43% 30.00 in 10.0 mi South 10.4 mph 17.3 mph N/A   Scattered Clouds
8:35 AM 59.4 °F 36.0 °F 42% 30.00 in 10.0 mi South 12.7 mph - N/A   Mostly Cloudy
8:55 AM 60.3 °F 37.4 °F 43% 30.00 in 10.0 mi South 9.2 mph 18.4 mph N/A   Overcast
9:15 AM 60.8 °F 38.5 °F 44% 29.99 in 10.0 mi South 11.5 mph 17.3 mph N/A   Scattered Clouds
9:35 AM 61.7 °F 39.4 °F 44% 29.99 in 10.0 mi South 11.5 mph 19.6 mph N/A   Clear
9:55 AM 63.9 °F 41.2 °F 43% 29.98 in 10.0 mi South 11.5 mph - N/A   Clear
10:15 AM 64.9 °F 41.5 °F 42% 29.98 in 10.0 mi South 13.8 mph 19.6 mph N/A   Clear
10:35 AM 66.7 °F 43.0 °F 42% 29.97 in 10.0 mi South 15.0 mph 19.6 mph N/A   Clear
11:35 AM 70.0 °F 46.0 °F 42% 29.96 in 10.0 mi South 13.8 mph 19.6 mph N/A   Clear
11:55 AM 70.3 °F 46.4 °F 42% 29.96 in 10.0 mi SSE 13.8 mph 20.7 mph N/A   Clear
12:15 PM 71.2 °F 47.5 °F 43% 29.96 in 10.0 mi South 13.8 mph 20.7 mph N/A   Clear
12:35 PM 72.9 °F 48.7 °F 42% 29.95 in 10.0 mi South 15.0 mph - N/A   Clear
12:55 PM 72.0 °F 48.2 °F 43% 29.95 in 10.0 mi SSW 18.4 mph 26.5 mph N/A   Clear
1:15 PM 73.0 °F 49.3 °F 43% 29.94 in 10.0 mi South 17.3 mph - N/A   Clear
1:35 PM 73.0 °F 49.3 °F 43% 29.95 in 10.0 mi SW 19.6 mph 29.9 mph N/A   Clear
1:55 PM 74.1 °F 50.0 °F 43% 29.95 in 10.0 mi SW 15.0 mph 23.0 mph N/A   Clear
2:15 PM 73.9 °F 50.0 °F 43% 29.95 in 10.0 mi SSW 12.7 mph 18.4 mph N/A   Clear
2:35 PM 74.7 °F 50.5 °F 43% 29.95 in 10.0 mi SW 17.3 mph 24.2 mph N/A   Clear
2:55 PM 74.5 °F 50.7 °F 43% 29.95 in 10.0 mi South 16.1 mph 21.9 mph N/A   Scattered Clouds
3:15 PM 74.8 °F 50.7 °F 43% 29.95 in 10.0 mi SW 15.0 mph 24.2 mph N/A   Scattered Clouds
3:35 PM 73.9 °F 50.4 °F 43% 29.96 in 10.0 mi SW 17.3 mph 25.3 mph N/A   Scattered Clouds
3:55 PM 72.9 °F 50.9 °F 46% 29.96 in 10.0 mi SW 13.8 mph 20.7 mph N/A   Mostly Cloudy
4:15 PM 73.6 °F 51.8 °F 46% 29.96 in 10.0 mi SSW 8.1 mph 20.7 mph N/A   Overcast
4:35 PM 73.4 °F 51.6 °F 46% 29.96 in 10.0 mi SW 12.7 mph - N/A   Overcast
4:55 PM 73.8 °F 52.0 °F 46% 29.96 in 10.0 mi SW 11.5 mph 17.3 mph N/A   Overcast
5:15 PM 73.9 °F 52.2 °F 46% 29.96 in 10.0 mi SSW 11.5 mph 17.3 mph N/A   Overcast
5:35 PM 73.6 °F 52.3 °F 47% 29.96 in 10.0 mi SSW 9.2 mph - N/A   Overcast
5:55 PM 73.8 °F 52.9 °F 48% 29.95 in 10.0 mi SW 6.9 mph - N/A   Overcast
6:35 PM 73.9 °F 53.4 °F 49% 29.96 in 10.0 mi West 3.5 mph - N/A   Overcast
6:55 PM 73.4 °F 53.6 °F 50% 29.96 in 10.0 mi Calm Calm - N/A   Overcast
7:15 PM 73.2 °F 54.3 °F 51% 29.96 in 10.0 mi WNW 3.5 mph - N/A   Mostly Cloudy
7:35 PM 70.9 °F 54.5 °F 56% 29.98 in 10.0 mi NW 6.9 mph - N/A   Mostly Cloudy
7:55 PM 69.3 °F 54.3 °F 59% 29.99 in 10.0 mi NW 9.2 mph 17.3 mph N/A   Overcast
8:15 PM 68.4 °F 54.1 °F 60% 30.01 in 10.0 mi NW 11.5 mph 17.3 mph N/A   Overcast
8:35 PM 64.6 °F 52.0 °F 64% 30.03 in 10.0 mi NW 16.1 mph 21.9 mph N/A   Overcast
8:55 PM 62.8 °F 50.9 °F 65% 30.05 in 10.0 mi NW 11.5 mph 19.6 mph N/A   Overcast
9:35 PM 59.4 °F 49.1 °F 69% 30.08 in 10.0 mi NNW 17.3 mph 23.0 mph N/A   Overcast
9:55 PM 57.9 °F 48.9 °F 72% 30.10 in 10.0 mi NNW 16.1 mph 21.9 mph N/A   Overcast
10:15 PM 55.8 °F 49.1 °F 78% 30.10 in 10.0 mi NNW 15.0 mph 18.4 mph N/A   Overcast
10:35 PM 54.9 °F 49.1 °F 81% 30.11 in 10.0 mi NNW 11.5 mph 18.4 mph N/A   Overcast
10:55 PM 54.5 °F 48.9 °F 81% 30.12 in 10.0 mi NNW 10.4 mph 16.1 mph N/A   Overcast
11:15 PM 53.8 °F 48.6 °F 82% 30.13 in 10.0 mi NNW 11.5 mph - N/A   Overcast
11:35 PM 53.1 °F 47.8 °F 82% 30.14 in 10.0 mi NNW 9.2 mph 19.6 mph N/A   Overcast
11:55 PM 52.7 °F 47.5 °F 82% 30.15 in 10.0 mi NNW 9.2 mph - N/A   Overcast